Terug naar catalogus

COSMOS 1680

ActiefNavigatieLEO
NORAD 16011·PAYLOAD·🇷🇺 Russia

Gelanceerd Sep 4, 1985 vanaf Plesetsk Cosmodrome

Loading…

Volgende Passages (komende 24 uur)

TLE

VersSource: Space-Track

Epoch: Sep 14, 2026, 21:34 UTC

1 16011U 85079A   26257.89887807  .00000089  00000-0  41185-4 0  9995
2 16011  74.0541 160.7838 0015775 309.4400  50.5355 14.34179574144669

Volg COSMOS 1680 in realtime met AllMySat

Download on the App Store